Flag Weather past 2 weeks in Rockford, Illinois, U.S.A.

Now
39 °F

Overcast.


Feels Like: 28 °F
Forecast: 29 / 39 °F
Wind: 26 mph from North

Location: Greater Rockford Airport

Current Time: Oct 31, 2014 at 3:12:16 PM

Latest Report: Oct 31, 2014 at 2:54 PM


Visibility: 10 mi

Pressure: 30.33 "Hg

Humidity: 45%

Dew point: 19 °F

Location of RockfordLocation

Historic Weather in Rockford — Graph

°F

Rockford temperature yesterday

Maximum temperature yesterday: 52 °F (at 12:54 PM)
Minimum temperature yesterday: 31 °F (at 2:54 AM)
Average temperature yesterday: 42 °F

Past Weeks' High & Low Weather Summary

 TemperatureHumidityPressure
High78 °F (Oct 27, 2:54 PM)97% (Oct 24, 4:54 AM)30.40 "Hg (Oct 24, 4:54 AM)
Low31 °F (Oct 30, 2:54 AM)21% (Oct 25, 3:54 PM)27.01 "Hg (Oct 17, 4:00 AM)
Average50 °F68%30.01 "Hg
* Reported Oct 16 2:02 PM — Oct 31 1:54 PM, Rockford, Weather by CustomWeather, © 2014

Note: Actual official high and low records may vary slightly from our data, if they occured in-between our weather recording intervals... More about our weather records

Advertising

Rockford weather history for previous 24 hours

 ConditionsComfort  
Time TempWeatherWind HumidityBarometerVisibility
1:54 PM
Oct 31
40 °FPartly sunny.23 mph45%30.32 "Hg10 mi
12:54 PM39 °FPartly sunny.26 mph46%30.32 "Hg10 mi
11:54 AM39 °FPartly sunny.31 mph46%30.31 "Hg10 mi
10:54 AM37 °FPartly sunny.29 mph52%30.29 "Hg10 mi
9:54 AM38 °FPartly sunny.25 mph53%30.27 "Hg10 mi
8:54 AM36 °FPartly sunny.22 mph62%30.25 "Hg10 mi
7:54 AM35 °FMostly cloudy.21 mph70%30.22 "Hg10 mi
6:54 AM34 °FLight snow. Mostly cloudy.21 mph79%30.19 "Hg8 mi
5:54 AM37 °FOvercast.23 mph57%30.17 "Hg10 mi
4:54 AM38 °FMostly cloudy.21 mph58%30.15 "Hg10 mi
3:54 AM40 °FLight rain. Mostly cloudy.23 mph58%30.12 "Hg10 mi
2:54 AM44 °FOvercast.17 mph55%30.10 "Hg10 mi
1:54 AM45 °FLight rain. Mostly cloudy.14 mph60%30.09 "Hg10 mi
12:54 AM47 °FOvercast.12 mph69%30.08 "Hg10 mi
11:54 PM
Oct 30
47 °FLight rain. Overcast.9 mph71%30.09 "Hg10 mi
10:54 PM47 °FLight rain. Overcast.8 mph69%30.09 "Hg10 mi
9:54 PM47 °FOvercast.7 mph66%30.10 "Hg10 mi
8:54 PM46 °FOvercast.3 mph68%30.09 "Hg10 mi
7:54 PM47 °FOvercast.3 mph64%30.10 "Hg10 mi
6:54 PM48 °FMostly cloudy.5 mph63%30.10 "Hg10 mi
5:54 PM49 °FMostly cloudy.5 mph61%30.10 "Hg10 mi
4:54 PM51 °FMostly cloudy.7 mph54%30.09 "Hg10 mi
3:54 PM51 °FOvercast.5 mph54%30.09 "Hg10 mi
Weather by CustomWeather, © 2014

See weather overviewHow to use our weather pages